Starlink 33833

operational
NORAD ID: 63498 Int'l Des: 2025-071 Owner: SPXS Country: US Constellation: starlink
LEOCIRCULAR

About Starlink 33833

Description loading...

Live Position

Loading 3D Globe...

Upcoming Passes

Altitude History

Altitude vs Time

uPlot chart will show altitude changes over time

Two-Line Element Set

1 63498U 25071F 26033.12860981 .00019589 00000-0 67163-3 0 9992
2 63498 53.1596 305.2239 0001390 81.4169 278.6990 15.30207383 47326
Epoch: Feb 2, 2026 • Age: 28 hours

Current Status

Altitude 491.9 km
Velocity 7.62 km/s
Sub-Earth Point -46.81°S, 63.11°W
Launch Date Apr 7, 2025
Age 0.8 years
Type internet

Technical Details

Classification Payload
Mass 575.00 kg
Dry Mass 530.00 kg
Total Mass 575.00 kg
Length 0.30 m
Diameter 4.10 m
Span 29.00 m
Shape Box + pan
Manufacturer SPXS
Bus Type Starlink V2MO
Phase Status In Orbit
Owner/State SPXS/US

Large Constellations

Loading constellations...